COSMOS 2251 DEB

Satellite information

Favourite Embed

Satellite Type and Status

DEBRISIN ORBIT

Key statistics

Satellite COSMOS 2251 DEB at a glance.

Uptime

11769

Days in orbit

Revolutions

≈ 14.8

Per day

Orbit

LEO

Low Earth Orbit

Inclination

74.0

Latest

Satellite identification and parameters

Extended collection of information and parameters for COSMOS 2251 DEB.

Object identification

Identified? True

Debris? True

Object name: COSMOS 2251 DEB

International designator: 1993-036KL

Object number (NORAD): 34115

Object ID (CCSDS): 34115

Country: COMMONWEALTH OF INDEPENDENT STATES (CIS)

Current information (Y/N): Y

RCS size: SMALL

Orbital parameters

Period: 97.488 minutes

Inclination: 74.0074 deg

SMA: 7016.614 km

Apoapsis: 660.528 km

Periapsis: 616.43 km

RAAN: 78.6062 deg

Eccentricy: 0.00314241

Argument of periapsis: 284.2001 deg

Mean anomaly: 75.5683 deg

Mean motion: 14.7710513 rev/day

Mean motion (dot): 0.00012954 rev/day2

B* drag term: 0.0018196913 1/REarth

Two-line elements (TLE)

Creation date: Sept. 4, 2025, 4:29 a.m.

Reference frame: TEME

Reference center: EARTH

Epoch: Sept. 3, 2025, 7:17 p.m. UTC

TLE line 0: 0 COSMOS 2251 DEB

TLE line 1: 1 34115U 93036KL 25246.80405902 .00012954 00000-0 18197-2 0 9991

TLE line 2: 2 34115 74.0074 78.6062 0031424 284.2001 75.5683 14.77105130879353

Live tracking on map

Real-time ground track for satellite COSMOS 2251 DEB.

In-orbit conjunctions

A list of the most updated potential collisions computed for object COSMOS 2251 DEB.

Target Orbit TCA Probability of collision Miss distance Type
SL-14 R/B LEO 2025-07-25 12:13:05 0.0001352576 387.0 (m) ROCKET BODY
CSTB 1 SSO 2024-09-04 06:21:41 0.0001631969 639.0 (m) PAYLOAD

Associated space launch

Military communications satellite. Destroyed in a collision with Iridium 33.

COSMOS 2251 DEB was lifted into orbit during the mission ‘Kosmos-3M | Strela-2M 51’, on board a Kosmos-3M space rocket.

The launch took place on June 16, 1993, 4:17 a.m. from 132/1 (132L).

For more information about the launch, click the button.

Launch to space Kosmos-3M | Strela-2M 51
Kosmos-3M | Strela-2M 51

Agency: N/A

Status: Launch Successful

Launch date: June 16, 1993, 4:17 a.m. UTC

Rocket: Kosmos-3M

Launch pad: 132/1 (132L)

Location: Plesetsk Cosmodrome, Russian Federation

...

Latest news about this satellite

There are no fresh news available about this satellite. Check back as we update our databases every day.


Newsletter sign-up

Weekly statistics, charts and insights to help you stay on top of the space industry.